Year,Month,Day,Hour,Minute,Value (Times are PST for temperature in C)
2009,04,15,00,00,7.20
2009,04,15,00,01,7.20
2009,04,15,00,02,7.20
2009,04,15,00,03,7.10
2009,04,15,00,04,7.10
2009,04,15,00,05,7.10
2009,04,15,00,06,7.10
2009,04,15,00,07,7.00
2009,04,15,00,08,7.00
2009,04,15,00,09,7.00
2009,04,15,00,10,6.90
2009,04,15,00,11,6.90
2009,04,15,00,12,6.90
2009,04,15,00,13,6.90
2009,04,15,00,14,6.90
2009,04,15,00,15,6.90
2009,04,15,00,16,6.80
2009,04,15,00,17,6.80
2009,04,15,00,18,6.80
2009,04,15,00,19,6.80
2009,04,15,00,20,6.80
2009,04,15,00,21,6.80
2009,04,15,00,22,6.80
2009,04,15,00,23,6.80
2009,04,15,00,24,6.70
2009,04,15,00,25,6.70
2009,04,15,00,26,6.70
2009,04,15,00,27,6.70
2009,04,15,00,28,6.70
2009,04,15,00,29,6.70
2009,04,15,00,30,6.70
2009,04,15,00,31,6.70
2009,04,15,00,32,6.70
2009,04,15,00,33,6.70
2009,04,15,00,34,6.70
2009,04,15,00,35,6.70
2009,04,15,00,36,6.70
2009,04,15,00,37,6.70
2009,04,15,00,38,6.70
2009,04,15,00,39,6.70
2009,04,15,00,40,6.70
2009,04,15,00,41,6.70
2009,04,15,00,42,6.80
2009,04,15,00,43,6.80
2009,04,15,00,44,6.80
2009,04,15,00,45,6.80
2009,04,15,00,46,6.70
2009,04,15,00,47,6.70
2009,04,15,00,48,6.70
2009,04,15,00,49,6.70
2009,04,15,00,50,6.70
2009,04,15,00,51,6.70
2009,04,15,00,52,6.70
2009,04,15,00,53,6.60
2009,04,15,00,54,6.60
2009,04,15,00,55,6.60
2009,04,15,00,56,6.60
2009,04,15,00,57,6.50
2009,04,15,00,58,6.50
2009,04,15,00,59,6.50
2009,04,15,01,00,6.40
2009,04,15,01,01,6.40
2009,04,15,01,02,6.40
2009,04,15,01,03,6.40
2009,04,15,01,04,6.40
2009,04,15,01,05,6.40
2009,04,15,01,06,6.40
2009,04,15,01,07,6.40
2009,04,15,01,08,6.40
2009,04,15,01,09,6.40
2009,04,15,01,10,6.40
2009,04,15,01,11,6.40
2009,04,15,01,12,6.40
2009,04,15,01,13,6.40
2009,04,15,01,14,6.50
2009,04,15,01,15,6.50
2009,04,15,01,16,6.50
2009,04,15,01,17,6.50
2009,04,15,01,18,6.50
2009,04,15,01,19,6.60
2009,04,15,01,20,6.60
2009,04,15,01,21,6.60
2009,04,15,01,22,6.60
2009,04,15,01,23,6.60
2009,04,15,01,24,6.60
2009,04,15,01,25,6.60
2009,04,15,01,26,6.70
2009,04,15,01,27,6.70
2009,04,15,01,28,6.70
2009,04,15,01,29,6.70
2009,04,15,01,30,6.70
2009,04,15,01,31,6.70
2009,04,15,01,32,6.70
2009,04,15,01,33,6.70
2009,04,15,01,34,6.70
2009,04,15,01,35,6.70
2009,04,15,01,36,6.70
2009,04,15,01,37,6.70
2009,04,15,01,38,6.70
2009,04,15,01,39,6.70
2009,04,15,01,40,6.70
2009,04,15,01,41,6.70
2009,04,15,01,42,6.70
2009,04,15,01,43,6.70
2009,04,15,01,44,6.70
2009,04,15,01,45,6.70
2009,04,15,01,46,6.70
2009,04,15,01,47,6.60
2009,04,15,01,48,6.60
2009,04,15,01,49,6.60
2009,04,15,01,50,6.60
2009,04,15,01,51,6.50
2009,04,15,01,52,6.50
2009,04,15,01,53,6.40
2009,04,15,01,54,6.40
2009,04,15,01,55,6.40
2009,04,15,01,56,6.30
2009,04,15,01,57,6.30
2009,04,15,01,58,6.30
2009,04,15,01,59,6.20
2009,04,15,02,00,6.20
2009,04,15,02,01,6.10
2009,04,15,02,02,6.10
2009,04,15,02,03,6.00
2009,04,15,02,04,6.00
2009,04,15,02,05,5.90
2009,04,15,02,06,5.90
2009,04,15,02,07,5.80
2009,04,15,02,08,5.80
2009,04,15,02,09,5.80
2009,04,15,02,10,5.80
2009,04,15,02,11,5.80
2009,04,15,02,12,5.80
2009,04,15,02,13,5.70
2009,04,15,02,14,5.70
2009,04,15,02,15,5.70
2009,04,15,02,16,5.70
2009,04,15,02,17,5.70
2009,04,15,02,18,5.70
2009,04,15,02,19,5.60
2009,04,15,02,20,5.60
2009,04,15,02,21,5.60
2009,04,15,02,22,5.50
2009,04,15,02,23,5.50
2009,04,15,02,24,5.40
2009,04,15,02,25,5.40
2009,04,15,02,26,5.30
2009,04,15,02,27,5.30
2009,04,15,02,28,5.30
2009,04,15,02,29,5.20
2009,04,15,02,30,5.20
2009,04,15,02,31,5.20
2009,04,15,02,32,5.10
2009,04,15,02,33,5.10
2009,04,15,02,34,5.00
2009,04,15,02,35,5.00
2009,04,15,02,36,4.90
2009,04,15,02,37,4.90
2009,04,15,02,38,4.80
2009,04,15,02,39,4.80
2009,04,15,02,40,4.80
2009,04,15,02,41,4.70
2009,04,15,02,42,4.70
2009,04,15,02,43,4.60
2009,04,15,02,44,4.60
2009,04,15,02,45,4.60
2009,04,15,02,46,4.50
2009,04,15,02,47,4.40
2009,04,15,02,48,4.40
2009,04,15,02,49,4.40
2009,04,15,02,50,4.30
2009,04,15,02,51,4.30
2009,04,15,02,52,4.30
2009,04,15,02,53,4.30
2009,04,15,02,54,4.30
2009,04,15,02,55,4.20
2009,04,15,02,56,4.20
2009,04,15,02,57,4.20
2009,04,15,02,58,4.20
2009,04,15,02,59,4.20
2009,04,15,03,00,4.20
2009,04,15,03,01,4.20
2009,04,15,03,02,4.20
2009,04,15,03,03,4.20
2009,04,15,03,04,4.20
2009,04,15,03,05,4.20
2009,04,15,03,06,4.20
2009,04,15,03,07,4.30
2009,04,15,03,08,4.30
2009,04,15,03,09,4.30
2009,04,15,03,10,4.30
2009,04,15,03,11,4.30
2009,04,15,03,12,4.40
2009,04,15,03,13,4.40
2009,04,15,03,14,4.40
2009,04,15,03,15,4.40
2009,04,15,03,16,4.40
2009,04,15,03,17,4.50
2009,04,15,03,18,4.50
2009,04,15,03,19,4.60
2009,04,15,03,20,4.60
2009,04,15,03,21,4.60
2009,04,15,03,22,4.60
2009,04,15,03,23,4.70
2009,04,15,03,24,4.70
2009,04,15,03,25,4.70
2009,04,15,03,26,4.80
2009,04,15,03,27,4.80
2009,04,15,03,28,4.80
2009,04,15,03,29,4.80
2009,04,15,03,30,4.80
2009,04,15,03,31,4.80
2009,04,15,03,32,4.80
2009,04,15,03,33,4.80
2009,04,15,03,34,4.80
2009,04,15,03,35,4.80
2009,04,15,03,36,4.70
2009,04,15,03,37,4.70
2009,04,15,03,38,4.70
2009,04,15,03,39,4.70
2009,04,15,03,40,4.70
2009,04,15,03,41,4.70
2009,04,15,03,42,4.60
2009,04,15,03,43,4.60
2009,04,15,03,44,4.60
2009,04,15,03,45,4.60
2009,04,15,03,46,4.60
2009,04,15,03,47,4.60
2009,04,15,03,48,4.50
2009,04,15,03,49,4.50
2009,04,15,03,50,4.50
2009,04,15,03,51,4.50
2009,04,15,03,52,4.40
2009,04,15,03,53,4.40
2009,04,15,03,54,4.40
2009,04,15,03,55,4.40
2009,04,15,03,56,4.40
2009,04,15,03,57,4.40
2009,04,15,03,58,4.30
2009,04,15,03,59,4.30
2009,04,15,04,00,4.30
2009,04,15,04,01,4.30
2009,04,15,04,02,4.30
2009,04,15,04,03,4.20
2009,04,15,04,04,4.20
2009,04,15,04,05,4.20
2009,04,15,04,06,4.20
2009,04,15,04,07,4.20
2009,04,15,04,08,4.10
2009,04,15,04,09,4.10
2009,04,15,04,10,4.10
2009,04,15,04,11,4.00
2009,04,15,04,12,4.00
2009,04,15,04,13,3.90
2009,04,15,04,14,3.90
2009,04,15,04,15,3.80
2009,04,15,04,16,3.70
2009,04,15,04,17,3.70
2009,04,15,04,18,3.70
2009,04,15,04,19,3.70
2009,04,15,04,20,3.60
2009,04,15,04,21,3.60
2009,04,15,04,22,3.60
2009,04,15,04,23,3.50
2009,04,15,04,24,3.50
2009,04,15,04,25,3.40
2009,04,15,04,26,3.40
2009,04,15,04,27,3.40
2009,04,15,04,28,3.40
2009,04,15,04,29,3.40
2009,04,15,04,30,3.40
2009,04,15,04,31,3.40
2009,04,15,04,32,3.40
2009,04,15,04,33,3.40
2009,04,15,04,34,3.40
2009,04,15,04,35,3.40
2009,04,15,04,36,3.40
2009,04,15,04,37,3.50
2009,04,15,04,38,3.50
2009,04,15,04,39,3.50
2009,04,15,04,40,3.60
2009,04,15,04,41,3.60
2009,04,15,04,42,3.60
2009,04,15,04,43,3.60
2009,04,15,04,44,3.60
2009,04,15,04,45,3.60
2009,04,15,04,46,3.60
2009,04,15,04,47,3.60
2009,04,15,04,48,3.60
2009,04,15,04,49,3.60
2009,04,15,04,50,3.60
2009,04,15,04,51,3.60
2009,04,15,04,52,3.60
2009,04,15,04,53,3.60
2009,04,15,04,54,3.50
2009,04,15,04,55,3.50
2009,04,15,04,56,3.50
2009,04,15,04,57,3.50
2009,04,15,04,58,3.50
2009,04,15,04,59,3.50
2009,04,15,05,00,3.50
2009,04,15,05,01,3.50
2009,04,15,05,02,3.50
2009,04,15,05,03,3.50
2009,04,15,05,04,3.50
2009,04,15,05,05,3.50
2009,04,15,05,06,3.50
2009,04,15,05,07,3.60
2009,04,15,05,08,3.60
2009,04,15,05,09,3.60
2009,04,15,05,10,3.60
2009,04,15,05,11,3.60
2009,04,15,05,12,3.60
2009,04,15,05,13,3.60
2009,04,15,05,14,3.60
2009,04,15,05,15,3.70
2009,04,15,05,16,3.70
2009,04,15,05,17,3.70
2009,04,15,05,18,3.70
2009,04,15,05,19,3.80
2009,04,15,05,20,3.80
2009,04,15,05,21,3.80
2009,04,15,05,22,3.80
2009,04,15,05,23,3.80
2009,04,15,05,24,3.80
2009,04,15,05,25,3.90
2009,04,15,05,26,3.90
2009,04,15,05,27,3.90
2009,04,15,05,28,3.90
2009,04,15,05,29,3.90
2009,04,15,05,30,3.90
2009,04,15,05,31,3.90
2009,04,15,05,32,3.90
2009,04,15,05,33,3.90
2009,04,15,05,34,3.90
2009,04,15,05,35,3.90
2009,04,15,05,36,3.90
2009,04,15,05,37,3.90
2009,04,15,05,38,3.90
2009,04,15,05,39,3.90
2009,04,15,05,40,3.90
2009,04,15,05,41,3.80
2009,04,15,05,42,3.80
2009,04,15,05,43,3.80
2009,04,15,05,44,3.90
2009,04,15,05,45,3.90
2009,04,15,05,46,3.90
2009,04,15,05,47,3.90
2009,04,15,05,48,3.90
2009,04,15,05,49,3.80
2009,04,15,05,50,3.80
2009,04,15,05,51,3.80
2009,04,15,05,52,3.80
2009,04,15,05,53,3.80
2009,04,15,05,54,3.80
2009,04,15,05,55,3.70
2009,04,15,05,56,3.70
2009,04,15,05,57,3.60
2009,04,15,05,58,3.50
2009,04,15,05,59,3.50
2009,04,15,06,00,3.40
2009,04,15,06,01,3.30
2009,04,15,06,02,3.20
2009,04,15,06,03,3.10
2009,04,15,06,04,3.00
2009,04,15,06,05,3.00
2009,04,15,06,06,2.90
2009,04,15,06,07,2.80
2009,04,15,06,08,2.70
2009,04,15,06,09,2.70
2009,04,15,06,10,2.60
2009,04,15,06,11,2.60
2009,04,15,06,12,2.60
2009,04,15,06,13,2.50
2009,04,15,06,14,2.40
2009,04,15,06,15,2.40
2009,04,15,06,16,2.40
2009,04,15,06,17,2.30
2009,04,15,06,18,2.30
2009,04,15,06,19,2.30
2009,04,15,06,20,2.30
2009,04,15,06,21,2.30
2009,04,15,06,22,2.20
2009,04,15,06,23,2.20
2009,04,15,06,24,2.20
2009,04,15,06,25,2.20
2009,04,15,06,26,2.20
2009,04,15,06,27,2.20
2009,04,15,06,28,2.20
2009,04,15,06,29,2.20
2009,04,15,06,30,2.20
2009,04,15,06,31,2.20
2009,04,15,06,32,2.20
2009,04,15,06,33,2.20
2009,04,15,06,34,2.20
2009,04,15,06,35,2.20
2009,04,15,06,36,2.20
2009,04,15,06,37,2.30
2009,04,15,06,38,2.30
2009,04,15,06,39,2.30
2009,04,15,06,40,2.30
2009,04,15,06,41,2.30
2009,04,15,06,42,2.30
2009,04,15,06,43,2.30
2009,04,15,06,44,2.30
2009,04,15,06,45,2.30
2009,04,15,06,46,2.30
2009,04,15,06,47,2.30
2009,04,15,06,48,2.30
2009,04,15,06,49,2.30
2009,04,15,06,50,2.30
2009,04,15,06,51,2.40
2009,04,15,06,52,2.40
2009,04,15,06,53,2.40
2009,04,15,06,54,2.40
2009,04,15,06,55,2.40
2009,04,15,06,56,2.40
2009,04,15,06,57,2.30
2009,04,15,06,58,2.30
2009,04,15,06,59,2.30
2009,04,15,07,00,2.30
2009,04,15,07,01,2.30
2009,04,15,07,02,2.30
2009,04,15,07,03,2.30
2009,04,15,07,04,2.30
2009,04,15,07,05,2.40
2009,04,15,07,06,2.40
2009,04,15,07,07,2.40
2009,04,15,07,08,2.50
2009,04,15,07,09,2.50
2009,04,15,07,10,2.60
2009,04,15,07,11,2.60
2009,04,15,07,12,2.70
2009,04,15,07,13,2.70
2009,04,15,07,14,2.70
2009,04,15,07,15,2.80
2009,04,15,07,16,2.80
2009,04,15,07,17,2.90
2009,04,15,07,18,3.00
2009,04,15,07,19,3.00
2009,04,15,07,20,3.10
2009,04,15,07,21,3.20
2009,04,15,07,22,3.30
2009,04,15,07,23,3.40
2009,04,15,07,24,3.40
2009,04,15,07,25,3.50
2009,04,15,07,26,3.50
2009,04,15,07,27,3.60
2009,04,15,07,28,3.70
2009,04,15,07,29,3.90
2009,04,15,07,30,4.00
2009,04,15,07,31,4.10
2009,04,15,07,32,4.20
2009,04,15,07,33,4.30
2009,04,15,07,34,4.40
2009,04,15,07,35,4.40
2009,04,15,07,36,4.50
2009,04,15,07,37,4.60
2009,04,15,07,38,4.60
2009,04,15,07,39,4.70
2009,04,15,07,40,4.80
2009,04,15,07,41,4.80
2009,04,15,07,42,4.90
2009,04,15,07,43,5.00
2009,04,15,07,44,5.10
2009,04,15,07,45,5.20
2009,04,15,07,46,5.20
2009,04,15,07,47,5.30
2009,04,15,07,48,5.30
2009,04,15,07,49,5.30
2009,04,15,07,50,5.30
2009,04,15,07,51,5.30
2009,04,15,07,52,5.30
2009,04,15,07,53,5.30
2009,04,15,07,54,5.20
2009,04,15,07,55,5.20
2009,04,15,07,56,5.20
2009,04,15,07,57,5.20
2009,04,15,07,58,5.30
2009,04,15,07,59,5.30
2009,04,15,08,00,5.30
2009,04,15,08,01,5.30
2009,04,15,08,02,5.40
2009,04,15,08,03,5.40
2009,04,15,08,04,5.50
2009,04,15,08,05,5.50
2009,04,15,08,06,5.60
2009,04,15,08,07,5.60
2009,04,15,08,08,5.60
2009,04,15,08,09,5.70
2009,04,15,08,10,5.70
2009,04,15,08,11,5.70
2009,04,15,08,12,5.80
2009,04,15,08,13,5.80
2009,04,15,08,14,5.90
2009,04,15,08,15,6.00
2009,04,15,08,16,6.00
2009,04,15,08,17,6.10
2009,04,15,08,18,6.20
2009,04,15,08,19,6.20
2009,04,15,08,20,6.30
2009,04,15,08,21,6.30
2009,04,15,08,22,6.40
2009,04,15,08,23,6.50
2009,04,15,08,24,6.60
2009,04,15,08,25,6.60
2009,04,15,08,26,6.70
2009,04,15,08,27,6.80
2009,04,15,08,28,6.80
2009,04,15,08,29,6.90
2009,04,15,08,30,7.00
2009,04,15,08,31,7.00
2009,04,15,08,32,7.10
2009,04,15,08,33,7.20
2009,04,15,08,34,7.20
2009,04,15,08,35,7.30
2009,04,15,08,36,7.40
2009,04,15,08,37,7.50
2009,04,15,08,38,7.60
2009,04,15,08,39,7.70
2009,04,15,08,40,7.70
2009,04,15,08,41,7.80
2009,04,15,08,42,7.80
2009,04,15,08,43,7.80
2009,04,15,08,44,7.80
2009,04,15,08,45,7.90
2009,04,15,08,46,7.90
2009,04,15,08,47,8.00
2009,04,15,08,48,8.00
2009,04,15,08,49,8.10
2009,04,15,08,50,8.10
2009,04,15,08,51,8.10
2009,04,15,08,52,8.10
2009,04,15,08,53,8.10
2009,04,15,08,54,8.10
2009,04,15,08,55,8.20
2009,04,15,08,56,8.20
2009,04,15,08,57,8.20
2009,04,15,08,58,8.20
2009,04,15,08,59,8.20
2009,04,15,09,00,8.20
2009,04,15,09,01,8.20
2009,04,15,09,02,8.30
2009,04,15,09,03,8.30
2009,04,15,09,04,8.30
2009,04,15,09,05,8.30
2009,04,15,09,06,8.40
2009,04,15,09,07,8.40
2009,04,15,09,08,8.60
2009,04,15,09,09,8.70
2009,04,15,09,10,8.80
2009,04,15,09,11,9.00
2009,04,15,09,12,9.10
2009,04,15,09,13,9.30
2009,04,15,09,14,9.40
2009,04,15,09,15,9.50
2009,04,15,09,16,9.60
2009,04,15,09,17,9.70
2009,04,15,09,18,9.80
2009,04,15,09,19,9.90
2009,04,15,09,20,9.90
2009,04,15,09,21,10.00
2009,04,15,09,22,10.00
2009,04,15,09,23,9.90
2009,04,15,09,24,9.90
2009,04,15,09,25,9.80
2009,04,15,09,26,9.80
2009,04,15,09,27,9.70
2009,04,15,09,28,9.70
2009,04,15,09,29,9.60
2009,04,15,09,30,9.60
2009,04,15,09,31,9.60
2009,04,15,09,32,9.50
2009,04,15,09,33,9.40
2009,04,15,09,34,9.30
2009,04,15,09,35,9.30
2009,04,15,09,36,9.30
2009,04,15,09,37,9.40
2009,04,15,09,38,9.40
2009,04,15,09,39,9.40
2009,04,15,09,40,9.40
2009,04,15,09,41,9.40
2009,04,15,09,42,9.30
2009,04,15,09,43,9.30
2009,04,15,09,44,9.30
2009,04,15,09,45,9.30
2009,04,15,09,46,9.30
2009,04,15,09,47,9.30
2009,04,15,09,48,9.30
2009,04,15,09,49,9.30
2009,04,15,09,50,9.40
2009,04,15,09,51,9.40
2009,04,15,09,52,9.50
2009,04,15,09,53,9.60
2009,04,15,09,54,9.60
2009,04,15,09,55,9.70
2009,04,15,09,56,9.70
2009,04,15,09,57,9.80
2009,04,15,09,58,9.90
2009,04,15,09,59,9.90
2009,04,15,10,00,10.00
2009,04,15,10,01,10.10
2009,04,15,10,02,10.20
2009,04,15,10,03,10.20
2009,04,15,10,04,10.20
2009,04,15,10,05,10.20
2009,04,15,10,06,10.20
2009,04,15,10,07,10.20
2009,04,15,10,08,10.30
2009,04,15,10,09,10.40
2009,04,15,10,10,10.40
2009,04,15,10,11,10.50
2009,04,15,10,12,10.50
2009,04,15,10,13,10.50
2009,04,15,10,14,10.50
2009,04,15,10,15,10.50
2009,04,15,10,16,10.50
2009,04,15,10,17,10.50
2009,04,15,10,18,10.40
2009,04,15,10,19,10.40
2009,04,15,10,20,10.40
2009,04,15,10,21,10.30
2009,04,15,10,22,10.30
2009,04,15,10,23,10.30
2009,04,15,10,24,10.30
2009,04,15,10,25,10.30
2009,04,15,10,26,10.40
2009,04,15,10,27,10.50
2009,04,15,10,28,10.50
2009,04,15,10,29,10.60
2009,04,15,10,30,10.60
2009,04,15,10,31,10.50
2009,04,15,10,32,10.40
2009,04,15,10,33,10.30
2009,04,15,10,34,10.20
2009,04,15,10,35,10.10
2009,04,15,10,36,10.10
2009,04,15,10,37,10.00
2009,04,15,10,38,9.90
2009,04,15,10,39,9.80
2009,04,15,10,40,9.80
2009,04,15,10,41,9.70
2009,04,15,10,42,9.70
2009,04,15,10,43,9.60
2009,04,15,10,44,9.50
2009,04,15,10,45,9.40
2009,04,15,10,46,9.40
2009,04,15,10,47,9.40
2009,04,15,10,48,9.50
2009,04,15,10,49,9.40
2009,04,15,10,50,9.50
2009,04,15,10,51,9.50
2009,04,15,10,52,9.50
2009,04,15,10,53,9.50
2009,04,15,10,54,9.60
2009,04,15,10,55,9.60
2009,04,15,10,56,9.60
2009,04,15,10,57,9.60
2009,04,15,10,58,9.70
2009,04,15,10,59,9.70
2009,04,15,11,00,9.80
2009,04,15,11,01,9.80
2009,04,15,11,02,9.80
2009,04,15,11,03,9.90
2009,04,15,11,04,10.00
2009,04,15,11,05,10.10
2009,04,15,11,06,10.20
2009,04,15,11,07,10.20
2009,04,15,11,08,10.30
2009,04,15,11,09,10.30
2009,04,15,11,10,10.40
2009,04,15,11,11,10.30
2009,04,15,11,12,10.30
2009,04,15,11,13,10.20
2009,04,15,11,14,10.20
2009,04,15,11,15,10.20
2009,04,15,11,16,10.20
2009,04,15,11,17,10.20
2009,04,15,11,18,10.20
2009,04,15,11,19,10.20
2009,04,15,11,20,10.30
2009,04,15,11,21,10.30
2009,04,15,11,22,10.30
2009,04,15,11,23,10.30
2009,04,15,11,24,10.20
2009,04,15,11,25,10.20
2009,04,15,11,26,10.20
2009,04,15,11,27,10.10
2009,04,15,11,28,10.10
2009,04,15,11,29,10.20
2009,04,15,11,30,10.20
2009,04,15,11,31,10.30
2009,04,15,11,32,10.30
2009,04,15,11,33,10.30
2009,04,15,11,34,10.20
2009,04,15,11,35,10.30
2009,04,15,11,36,10.20
2009,04,15,11,37,10.20
2009,04,15,11,38,10.30
2009,04,15,11,39,10.30
2009,04,15,11,40,10.40
2009,04,15,11,41,10.40
2009,04,15,11,42,10.40
2009,04,15,11,43,10.40
2009,04,15,11,44,10.40
2009,04,15,11,45,10.30
2009,04,15,11,46,10.30
2009,04,15,11,47,10.40
2009,04,15,11,48,10.40
2009,04,15,11,49,10.40
2009,04,15,11,50,10.40
2009,04,15,11,51,10.40
2009,04,15,11,52,10.40
2009,04,15,11,53,10.40
2009,04,15,11,54,10.40
2009,04,15,11,55,10.30
2009,04,15,11,56,10.20
2009,04,15,11,57,10.10
2009,04,15,11,58,10.10
2009,04,15,11,59,10.00
2009,04,15,12,00,10.00
2009,04,15,12,01,10.00
2009,04,15,12,02,10.00
2009,04,15,12,03,10.00
2009,04,15,12,04,9.90
2009,04,15,12,05,9.90
2009,04,15,12,06,10.00
2009,04,15,12,07,10.10
2009,04,15,12,08,10.10
2009,04,15,12,09,10.20
2009,04,15,12,10,10.20
2009,04,15,12,11,10.30
2009,04,15,12,12,10.30
2009,04,15,12,13,10.30
2009,04,15,12,14,10.40
2009,04,15,12,15,10.30
2009,04,15,12,16,10.30
2009,04,15,12,17,10.20
2009,04,15,12,18,10.10
2009,04,15,12,19,10.10
2009,04,15,12,20,10.10
2009,04,15,12,21,10.10
2009,04,15,12,22,10.20
2009,04,15,12,23,10.30
2009,04,15,12,24,10.40
2009,04,15,12,25,10.50
2009,04,15,12,26,10.50
2009,04,15,12,27,10.50
2009,04,15,12,28,10.50
2009,04,15,12,29,10.40
2009,04,15,12,30,10.20
2009,04,15,12,31,10.20
2009,04,15,12,32,10.20
2009,04,15,12,33,10.30
2009,04,15,12,34,10.30
2009,04,15,12,35,10.40
2009,04,15,12,36,10.50
2009,04,15,12,37,10.50
2009,04,15,12,38,10.40
2009,04,15,12,39,10.30
2009,04,15,12,40,10.30
2009,04,15,12,41,10.30
2009,04,15,12,42,10.30
2009,04,15,12,43,10.20
2009,04,15,12,44,10.20
2009,04,15,12,45,10.20
2009,04,15,12,46,10.30
2009,04,15,12,47,10.30
2009,04,15,12,48,10.20
2009,04,15,12,49,10.30
2009,04,15,12,50,10.30
2009,04,15,12,51,10.30
2009,04,15,12,52,10.30
2009,04,15,12,53,10.30
2009,04,15,12,54,10.30
2009,04,15,12,55,10.30
2009,04,15,12,56,10.30
2009,04,15,12,57,10.30
2009,04,15,12,58,10.20
2009,04,15,12,59,10.20
2009,04,15,13,00,10.20
2009,04,15,13,01,10.20
2009,04,15,13,02,10.20
2009,04,15,13,03,10.20
2009,04,15,13,04,10.20
2009,04,15,13,05,10.30
2009,04,15,13,06,10.20
2009,04,15,13,07,10.20
2009,04,15,13,08,10.20
2009,04,15,13,09,10.20
2009,04,15,13,10,10.30
2009,04,15,13,11,10.40
2009,04,15,13,12,10.50
2009,04,15,13,13,10.60
2009,04,15,13,14,10.50
2009,04,15,13,15,10.50
2009,04,15,13,16,10.40
2009,04,15,13,17,10.40
2009,04,15,13,18,10.40
2009,04,15,13,19,10.50
2009,04,15,13,20,10.60
2009,04,15,13,21,10.60
2009,04,15,13,22,10.60
2009,04,15,13,23,10.60
2009,04,15,13,24,10.60
2009,04,15,13,25,10.70
2009,04,15,13,26,10.70
2009,04,15,13,27,10.80
2009,04,15,13,28,11.00
2009,04,15,13,29,11.00
2009,04,15,13,30,11.00
2009,04,15,13,31,11.10
2009,04,15,13,32,11.20
2009,04,15,13,33,11.20
2009,04,15,13,34,11.20
2009,04,15,13,35,11.10
2009,04,15,13,36,11.10
2009,04,15,13,37,11.10
2009,04,15,13,38,11.00
2009,04,15,13,39,11.10
2009,04,15,13,40,11.10
2009,04,15,13,41,11.20
2009,04,15,13,42,11.20
2009,04,15,13,43,11.30
2009,04,15,13,44,11.40
2009,04,15,13,45,11.50
2009,04,15,13,46,11.60
2009,04,15,13,47,11.80
2009,04,15,13,48,11.90
2009,04,15,13,49,12.00
2009,04,15,13,50,11.90
2009,04,15,13,51,11.80
2009,04,15,13,52,11.70
2009,04,15,13,53,11.60
2009,04,15,13,54,11.60
2009,04,15,13,55,11.70
2009,04,15,13,56,11.80
2009,04,15,13,57,11.80
2009,04,15,13,58,11.80
2009,04,15,13,59,11.80
2009,04,15,14,00,11.70
2009,04,15,14,01,11.60
2009,04,15,14,02,11.60
2009,04,15,14,03,11.60
2009,04,15,14,04,11.70
2009,04,15,14,05,11.70
2009,04,15,14,06,11.80
2009,04,15,14,07,11.80
2009,04,15,14,08,11.80
2009,04,15,14,09,11.80
2009,04,15,14,10,11.80
2009,04,15,14,11,11.90
2009,04,15,14,12,11.90
2009,04,15,14,13,12.00
2009,04,15,14,14,12.00
2009,04,15,14,15,12.00
2009,04,15,14,16,12.10
2009,04,15,14,17,12.10
2009,04,15,14,18,12.20
2009,04,15,14,19,12.20
2009,04,15,14,20,12.30
2009,04,15,14,21,12.30
2009,04,15,14,22,12.30
2009,04,15,14,23,12.40
2009,04,15,14,24,12.50
2009,04,15,14,25,12.50
2009,04,15,14,26,12.40
2009,04,15,14,27,12.20
2009,04,15,14,28,12.20
2009,04,15,14,29,12.30
2009,04,15,14,30,12.30
2009,04,15,14,31,12.40
2009,04,15,14,32,12.40
2009,04,15,14,33,12.40
2009,04,15,14,34,12.40
2009,04,15,14,35,12.40
2009,04,15,14,36,12.40
2009,04,15,14,37,12.30
2009,04,15,14,38,12.20
2009,04,15,14,39,12.10
2009,04,15,14,40,12.10
2009,04,15,14,41,12.10
2009,04,15,14,42,12.20
2009,04,15,14,43,12.20
2009,04,15,14,44,12.20
2009,04,15,14,45,12.20
2009,04,15,14,46,12.30
2009,04,15,14,47,12.30
2009,04,15,14,48,12.30
2009,04,15,14,49,12.40
2009,04,15,14,50,12.40
2009,04,15,14,51,12.30
2009,04,15,14,52,12.20
2009,04,15,14,53,12.10
2009,04,15,14,54,12.10
2009,04,15,14,55,12.10
2009,04,15,14,56,12.10
2009,04,15,14,57,12.10
2009,04,15,14,58,12.10
2009,04,15,14,59,12.20
2009,04,15,15,00,12.10
2009,04,15,15,01,12.00
2009,04,15,15,02,11.90
2009,04,15,15,03,12.00
2009,04,15,15,04,12.10
2009,04,15,15,05,12.20
2009,04,15,15,06,12.20
2009,04,15,15,07,12.20
2009,04,15,15,08,12.20
2009,04,15,15,09,12.20
2009,04,15,15,10,12.10
2009,04,15,15,11,12.00
2009,04,15,15,12,12.00
2009,04,15,15,13,11.90
2009,04,15,15,14,11.90
2009,04,15,15,15,12.00
2009,04,15,15,16,12.00
2009,04,15,15,17,12.10
2009,04,15,15,18,12.10
2009,04,15,15,19,12.00
2009,04,15,15,20,11.90
2009,04,15,15,21,11.90
2009,04,15,15,22,11.90
2009,04,15,15,23,12.00
2009,04,15,15,24,12.00
2009,04,15,15,25,12.00
2009,04,15,15,26,12.00
2009,04,15,15,27,12.00
2009,04,15,15,28,12.00
2009,04,15,15,29,12.00
2009,04,15,15,30,12.00
2009,04,15,15,31,11.90
2009,04,15,15,32,11.80
2009,04,15,15,33,11.70
2009,04,15,15,34,11.60
2009,04,15,15,35,11.60
2009,04,15,15,36,11.50
2009,04,15,15,37,11.50
2009,04,15,15,38,11.60
2009,04,15,15,39,11.70
2009,04,15,15,40,11.80
2009,04,15,15,41,11.80
2009,04,15,15,42,11.90
2009,04,15,15,43,11.90
2009,04,15,15,44,11.90
2009,04,15,15,45,11.80
2009,04,15,15,46,11.80
2009,04,15,15,47,11.70
2009,04,15,15,48,11.80
2009,04,15,15,49,11.80
2009,04,15,15,50,11.70
2009,04,15,15,51,11.60
2009,04,15,15,52,11.60
2009,04,15,15,53,11.60
2009,04,15,15,54,11.50
2009,04,15,15,55,11.50
2009,04,15,15,56,11.40
2009,04,15,15,57,11.40
2009,04,15,15,58,11.40
2009,04,15,15,59,11.50
2009,04,15,16,00,11.60
2009,04,15,16,01,11.60
2009,04,15,16,02,11.70
2009,04,15,16,03,11.80
2009,04,15,16,04,11.80
2009,04,15,16,05,11.70
2009,04,15,16,06,11.70
2009,04,15,16,07,11.70
2009,04,15,16,08,11.60
2009,04,15,16,09,11.60
2009,04,15,16,10,11.50
2009,04,15,16,11,11.40
2009,04,15,16,12,11.30
2009,04,15,16,13,11.20
2009,04,15,16,14,11.10
2009,04,15,16,15,11.20
2009,04,15,16,16,11.20
2009,04,15,16,17,11.30
2009,04,15,16,18,11.30
2009,04,15,16,19,11.30
2009,04,15,16,20,11.30
2009,04,15,16,21,11.30
2009,04,15,16,22,11.20
2009,04,15,16,23,11.20
2009,04,15,16,24,11.30
2009,04,15,16,25,11.30
2009,04,15,16,26,11.30
2009,04,15,16,27,11.30
2009,04,15,16,28,11.30
2009,04,15,16,29,11.30
2009,04,15,16,30,11.30
2009,04,15,16,31,11.30
2009,04,15,16,32,11.20
2009,04,15,16,33,11.10
2009,04,15,16,34,11.00
2009,04,15,16,35,11.00
2009,04,15,16,36,11.00
2009,04,15,16,37,11.00
2009,04,15,16,38,11.00
2009,04,15,16,39,11.10
2009,04,15,16,40,11.10
2009,04,15,16,41,11.10
2009,04,15,16,42,11.10
2009,04,15,16,43,11.10
2009,04,15,16,44,11.00
2009,04,15,16,45,11.00
2009,04,15,16,46,11.00
2009,04,15,16,47,10.90
2009,04,15,16,48,10.90
2009,04,15,16,49,10.90
2009,04,15,16,50,10.90
2009,04,15,16,51,11.00
2009,04,15,16,52,11.00
2009,04,15,16,53,11.00
2009,04,15,16,54,11.10
2009,04,15,16,55,11.00
2009,04,15,16,56,11.10
2009,04,15,16,57,11.10
2009,04,15,16,58,11.10
2009,04,15,16,59,11.10
2009,04,15,17,00,11.10
2009,04,15,17,01,11.20
2009,04,15,17,02,11.20
2009,04,15,17,03,11.20
2009,04,15,17,04,11.30
2009,04,15,17,05,11.30
2009,04,15,17,06,11.40
2009,04,15,17,07,11.40
2009,04,15,17,08,11.40
2009,04,15,17,09,11.50
2009,04,15,17,10,11.50
2009,04,15,17,11,11.60
2009,04,15,17,12,11.60
2009,04,15,17,13,11.70
2009,04,15,17,14,11.70
2009,04,15,17,15,11.70
2009,04,15,17,16,11.70
2009,04,15,17,17,11.80
2009,04,15,17,18,11.90
2009,04,15,17,19,11.90
2009,04,15,17,20,12.00
2009,04,15,17,21,12.00
2009,04,15,17,22,12.00
2009,04,15,17,23,12.00
2009,04,15,17,24,12.00
2009,04,15,17,25,12.10
2009,04,15,17,26,12.10
2009,04,15,17,27,12.20
2009,04,15,17,28,12.20
2009,04,15,17,29,12.30
2009,04,15,17,30,12.30
2009,04,15,17,31,12.30
2009,04,15,17,32,12.30
2009,04,15,17,33,12.30
2009,04,15,17,34,12.30
2009,04,15,17,35,12.30
2009,04,15,17,36,12.20
2009,04,15,17,37,12.20
2009,04,15,17,38,12.20
2009,04,15,17,39,12.10
2009,04,15,17,40,12.20
2009,04,15,17,41,12.10
2009,04,15,17,42,12.10
2009,04,15,17,43,12.00
2009,04,15,17,44,12.00
2009,04,15,17,45,11.90
2009,04,15,17,46,11.90